"Pseudo-MPEC" for P10U2PS

Created 2019 Nov 13 9:07:10 UT using Find_Orb

Click here for an explanation of pseudo-MPECs

 
 Astrometry: 
     P10U2PS  C2019 11 03P]^bGAN@P5.B`KjrANhI`lyNAstrometryaM-hm]KRLsT!m*s\l;F51
     P10U2PS  C2019 11 03Cr+o9Y7=s)HjD/27G]CG0p!ed_^Ryw$^l=q)4jg+l1OD@#[dJEZ%F51
     P10U2PS  C2019 11 030xdHypredacted;!vtclick_ClVZ!memYnI#5L^SP^3Unftqejr;F51
     P10U2PS KC2019 11 06?2^eh?Ei2e7kY:HnAa!qE5'm!!d@E7[It)k9O5%nLKM@sva4w3YfW86
     P10U2PS KC2019 11 06n'AhereoEan\w3_qQdEfi9lnAfB=(Vn;j[/KXp-;9lf0wP/=s#cBW86
     P10U2PS KC2019 11 06DPdaXt/Mdj\5mn`etmh9lR7va.Idrk.H/IZ*3-H#C8J7x5eEo-^aW86
     P10U2PS IC2019 11 06_O7!^;e0`NXpQ8forTdyBBnl3F\RkQ`*myY^qyf':n90y+d*t,iRW86
     P10U2PS KC2019 11 06954l[f,eY_x=`Jq+1tEus*97i3woVP/explanationFU'^;Fqxi`W86

Station data:
(F51) Pan-STARRS 1, Haleakala  (N20.707235 W156.255910)  US/Hawaii.
   Observers N. Primak, A. Schultz, S. Watters, J. Thiel, T. Goggia. Measurer
   PS1 Science Consortium. 1.8-m Ritchey-Chrétien + CCD.
(W86) Cerro Tololo-LCO B  (S30.167328 W70.804670)  Chile.  Observer T. Lister.
    1.0-m f/8 Ritchey-Chrétien + CCD.

Orbital elements:  P10U2PS
   Perihelion 2019 Dec 24.047222 +/- 0.709 TT =  1:08:00 (JD 2458841.547222)
Epoch 2019 Nov  6.0 TT = JDT 2458793.5   Earth MOID: 0.0279   AutoNEOCP
M 342.02571513 +/- 1.9              (J2000 ecliptic)
n   0.37409623 +/- 0.035            Peri.   45.76692 +/- 0.6
a   1.90757003 +/- 0.119            Node    53.62717 +/- 0.46
e   0.5162885 +/- 0.0328            Incl.   14.49733 +/- 0.6
P   2.63/962.30d           H 24.9   G  0.15   U 10.5  
q 0.92271341 +/- 0.00776    Q 2.89242666 +/- 0.238
From 8 observations 2019 Nov. 3-6; mean residual 0".12
Residuals in arcseconds: 
191103 F51  .01-  .15-    191106 W86  .15+  .07-    191106 W86  .14-  .05-    
191103 F51  .11-  .05+    191106 W86  .19+  .06+    191106 W86  .27-  .06+    
191103 F51  .11+  .11+    191106 W86  .07+  .01-    

Ephemerides (geocentric):
Date (UTC) HH   RA              Dec         delta   r     elong  mag " sig PA
---- -- -- --  -------------   -----------  ------ ------ -----  --- ---- ---
2019 11 13 09  02 00 13.819   -06 54 08.66  .07472 1.0547 149.6 20.6 1409 143
2019 11 13 10  01 59 59.542   -06 49 04.00  .07446 1.0545 149.6 20.6 1434 143
2019 11 13 11  01 59 45.173   -06 43 57.04  .07419 1.0543 149.6 20.6 1459 143
2019 11 13 12  01 59 30.711   -06 38 47.75  .07393 1.0540 149.6 20.6 1485 143
2019 11 13 13  01 59 16.155   -06 33 36.11  .07366 1.0538 149.6 20.6 1511 143
2019 11 13 14  01 59 01.504   -06 28 22.09  .07340 1.0535 149.6 20.6 1538 143
2019 11 13 15  01 58 46.757   -06 23 05.68  .07313 1.0533 149.6 20.6 1565 143
2019 11 13 16  01 58 31.913   -06 17 46.85  .07287 1.0531 149.6 20.6 1592 143
2019 11 13 17  01 58 16.972   -06 12 25.58  .07261 1.0528 149.6 20.5 1620 143
2019 11 13 18  01 58 01.931   -06 07 01.84  .07234 1.0526 149.6 20.5 1648 143
2019 11 13 19  01 57 46.791   -06 01 35.61  .07208 1.0523 149.6 20.5 1677 143
2019 11 13 20  01 57 31.550   -05 56 06.88  .07182 1.0521 149.6 20.5 1706 143
2019 11 13 21  01 57 16.208   -05 50 35.60  .07156 1.0518 149.6 20.5 1735 143
2019 11 13 22  01 57 00.763   -05 45 01.77  .07129 1.0516 149.6 20.5 1765 143
2019 11 13 23  01 56 45.213   -05 39 25.35  .07103 1.0514 149.6 20.5 1796 143
2019 11 14 00  01 56 29.560   -05 33 46.32  .07077 1.0511 149.6 20.5 1827 143
2019 11 14 01  01 56 13.800   -05 28 04.65  .07051 1.0509 149.6 20.5 1859 143
2019 11 14 02  01 55 57.934   -05 22 20.33  .07025 1.0506 149.6 20.5 1891 143
2019 11 14 03  01 55 41.959   -05 16 33.32  .06999 1.0504 149.6 20.5 1923 143
2019 11 14 04  01 55 25.876   -05 10 43.60  .06973 1.0502 149.6 20.5 1956 143
2019 11 14 05  01 55 09.682   -05 04 51.14  .06947 1.0499 149.6 20.4 1990 143
2019 11 14 06  01 54 53.377   -04 58 55.92  .06921 1.0497 149.6 20.4 2024 143
2019 11 14 07  01 54 36.960   -04 52 57.90  .06895 1.0495 149.6 20.4 2058 143
2019 11 14 08  01 54 20.429   -04 46 57.07  .06869 1.0492 149.6 20.4 2094 143
2019 11 14 09  01 54 03.784   -04 40 53.39  .06843 1.0490 149.5 20.4 2129 143
2019 11 14 10  01 53 47.022   -04 34 46.84  .06818 1.0487 149.5 20.4 2166 143
2019 11 14 11  01 53 30.144   -04 28 37.39  .06792 1.0485 149.5 20.4 2202 143
2019 11 14 12  01 53 13.147   -04 22 25.01  .06766 1.0483 149.5 20.4 2240 143
2019 11 14 13  01 52 56.031   -04 16 09.67  .06740 1.0480 149.5 20.4 2278 143
2019 11 14 14  01 52 38.794   -04 09 51.35  .06715 1.0478 149.5 20.4 2317 143
2019 11 14 15  01 52 21.435   -04 03 30.01  .06689 1.0475 149.5 20.4 2356 143
2019 11 14 16  01 52 03.953   -03 57 05.63  .06664 1.0473 149.5 20.4 2396 143
2019 11 14 17  01 51 46.346   -03 50 38.17  .06638 1.0471 149.5 20.3 2436 143
2019 11 14 18  01 51 28.613   -03 44 07.61  .06613 1.0468 149.5 20.3 2477 143
2019 11 14 19  01 51 10.753   -03 37 33.91  .06587 1.0466 149.5 20.3 2519 143
2019 11 14 20  01 50 52.765   -03 30 57.05  .06562 1.0464 149.5 20.3 2562 143
2019 11 14 21  01 50 34.646   -03 24 16.99  .06536 1.0461 149.5 20.3 2605 143
2019 11 14 22  01 50 16.397   -03 17 33.70  .06511 1.0459 149.5 20.3 2649 143
2019 11 14 23  01 49 58.014   -03 10 47.15  .06486 1.0456 149.4 20.3 2693 143
2019 11 15 00  01 49 39.498   -03 03 57.32  .06460 1.0454 149.4 20.3 2738 144
2019 11 15 01  01 49 20.846   -02 57 04.15  .06435 1.0452 149.4 20.3 2784 144
2019 11 15 02  01 49 02.057   -02 50 07.64  .06410 1.0449 149.4 20.3 2831 144
2019 11 15 03  01 48 43.129   -02 43 07.73  .06385 1.0447 149.4 20.3 2878 144
2019 11 15 04  01 48 24.062   -02 36 04.40  .06360 1.0445 149.4 20.3 2927 144
2019 11 15 05  01 48 04.853   -02 28 57.62  .06335 1.0442 149.4 20.2 2976 144
2019 11 15 06  01 47 45.501   -02 21 47.34  .06310 1.0440 149.4 20.2 3025 144
2019 11 15 07  01 47 26.004   -02 14 33.54  .06285 1.0438 149.3 20.2 3076 144
2019 11 15 08  01 47 06.361   -02 07 16.19  .06260 1.0435 149.3 20.2 3127 144